Weather History for Plattsburgh, NY

Change the Weather History Date:

Sunday, October 14, 2012

  Actual Average Record
Temperature  
Mean Temperature 47 °F 48 °F  
Max Temperature 53 °F 58 °F 77 °F (1954)
Min Temperature 40 °F 38 °F 23 °F (1958)
Degree Days  
Heating Degree Days 18 17  
Month to date heating degree days 199 206  
Since 1 July heating degree days 423 441  
Cooling Degree Days 0 0  
Month to date cooling degree days 0 0  
Year to date cooling degree days 493 345  
Moisture  
Dew Point 44 °F    
Average Humidity 92    
Maximum Humidity 100    
Minimum Humidity 83    
Precipitation  
Precipitation 0.18 in - 1.50 in (1978)
Month to date precipitation 1.16  
Year to date precipitation 21.68  
Sea Level Pressure  
Sea Level Pressure 29.93 in    
Wind  
Wind Speed 3 mph (South)    
Max Wind Speed 16 mph    
Max Gust Speed 22 mph    
Visibility 9 miles    
Events Rain    
T = Trace of Precipitation, MM = Missing Value Source: NWS Daily Summary

Daily Weather History Graph

Daily Weather History Graph

Search for Another Location

Airport:

Trip Planner

Search our weather history database for the weather conditions in past years. The results will help you decide how hot, cold, wet, or windy it might be!

Date:

Astronomy

Oct. 14, 2012 Rise Set
Actual Time 7:08 AM EDT 6:10 PM EDT
Civil Twilight 6:39 AM EDT 6:39 PM EDT
Nautical Twilight 6:05 AM EDT 7:13 PM EDT
Astronomical Twilight 5:31 AM EDT 7:47 PM EDT
Moon 6:03 AM EDT (10/14) 5:27 PM EDT (10/14)
Length of Visible Light 12h 00m
Length of Day
11h 01m
Waning Crescent, 1% of the Moon is Illuminated
Oct 14
Waning Crescent
Oct 15
New
Oct 21
First Quarter
Oct 29
Full
Nov 6
Last Quarter

Hourly Weather History & Observations

Time (EDT) Temp. Windchill Dew Point Humidity Pressure Visibility Wind Dir Wind Speed Gust Speed Precip Events Conditions
1:53 AM 41.0 °F 35.2 °F 37.9 °F 89% 30.14 in 10.0 mi South 9.2 mph - 0.08 in Rain Light Rain
2:53 AM 41.0 °F 34.7 °F 37.9 °F 89% 30.08 in 10.0 mi South 10.4 mph 21.9 mph 0.06 in Rain Light Rain
3:53 AM 41.0 °F 35.8 °F 39.0 °F 93% 30.04 in 10.0 mi South 8.1 mph - 0.03 in Rain Light Rain
4:53 AM 41.0 °F 35.8 °F 37.9 °F 89% 30.02 in 10.0 mi South 8.1 mph 17.3 mph 0.01 in Rain Light Rain
5:53 AM 42.1 °F 37.7 °F 39.0 °F 89% 30.01 in 10.0 mi South 6.9 mph - 0.00 in   Overcast
6:53 AM 42.1 °F 39.2 °F 39.9 °F 92% 30.00 in 10.0 mi South 4.6 mph - 0.00 in Rain Light Rain
7:53 AM 43.0 °F 41.3 °F 39.9 °F 89% 30.01 in 10.0 mi South 3.5 mph - 0.00 in   Overcast
8:42 AM 44.6 °F 42.2 °F 41.0 °F 87% 30.01 in 10.0 mi South 4.6 mph - 0.01 in Rain Light Rain
8:53 AM 44.1 °F 39.5 °F 41.0 °F 89% 30.01 in 10.0 mi South 8.1 mph - 0.01 in   Overcast
9:25 AM 44.6 °F 41.4 °F 41.0 °F 87% 30.00 in 10.0 mi South 5.8 mph - N/A   Overcast
9:53 AM 45.0 °F 41.8 °F 42.1 °F 90% 30.00 in 10.0 mi South 5.8 mph - N/A   Overcast
10:53 AM 46.0 °F 44.8 °F 42.1 °F 86% 30.00 in 10.0 mi Variable 3.5 mph - N/A   Overcast
11:53 AM 46.9 °F - 43.0 °F 86% 30.00 in 10.0 mi Calm Calm - N/A   Overcast
12:53 PM 46.9 °F - 44.1 °F 90% 29.98 in 10.0 mi Calm Calm - N/A   Overcast
1:53 PM 48.0 °F - 45.0 °F 89% 29.95 in 10.0 mi Calm Calm - 0.00 in   Overcast
2:53 PM 50.0 °F - 46.9 °F 89% 29.91 in 10.0 mi South 3.5 mph - 0.00 in Rain Light Rain
3:53 PM 51.1 °F - 48.0 °F 89% 29.91 in 10.0 mi Calm Calm - 0.00 in   Overcast
4:53 PM 51.1 °F - 48.9 °F 92% 29.88 in 10.0 mi Calm Calm - 0.00 in   Overcast
5:53 PM 53.1 °F - 48.9 °F 86% 29.87 in 10.0 mi Calm Calm - N/A   Overcast
6:06 PM 51.8 °F - 50.0 °F 94% 29.86 in 10.0 mi Calm Calm - N/A   Overcast
6:53 PM 50.0 °F - 48.9 °F 96% 29.84 in 7.0 mi Calm Calm - N/A   Mostly Cloudy
7:53 PM 50.0 °F - 48.9 °F 96% 29.82 in 10.0 mi Calm Calm - N/A   Clear
8:53 PM 48.0 °F - 46.9 °F 96% 29.79 in 2.0 mi South 4.6 mph - N/A   Clear
9:04 PM 50.0 °F - 48.2 °F 94% 29.79 in 10.0 mi West 3.5 mph - N/A   Clear
9:53 PM 48.9 °F - 48.0 °F 97% 29.79 in 6.0 mi Calm Calm - N/A   Clear
10:53 PM 48.9 °F - 48.0 °F 97% 29.76 in 6.0 mi Calm Calm - N/A   Clear
11:53 PM 48.9 °F - 48.0 °F 97% 29.73 in 6.0 mi Calm Calm - N/A   Clear